[[{"header":{"parameterUnit":"m.s-1","parameterCategory":1,"la1":30.2991,"la2":30.254,"lo1":-89.0895,"lo2":-89.0444,"dy":0.0017,"dx":0.0017,"nx":28,"ny":28,"refTime":"2024-04-14T03:00:00:Z","depth":0,"parameterNumber":2,"parameterNumberName":"U-component_of_WINDS"},"data":[0,0,0,0,0,0,0,0,0,0,0,0,0,0,0,0,0,0,0,0,0,0,0,0,0,0,0,0,0,0,0,0,0,0,0,0,0,0,0,0,0,0,0,0,0,0,0,0,0,0,0,0,0,0,0,0,0,0,-1.046,-1.0459,0,-1.0375,-1.0374,-1.0373,-1.0316,-1.0315,-1.0315,-1.0315,-1.0225,-1.0223,-1.0221,0,0,0,0,0,0,0,0,0,0,0,0,0,-1.0574,-1.0572,-1.046,-1.0459,-1.0458,-1.0375,-1.0374,-1.0372,-1.0316,-1.0315,-1.0315,-1.0315,-1.0225,-1.0223,-1.022,0,0,0,0,0,0,0,0,0,0,0,0,0,-1.051,-1.0572,-1.046,-1.042,-1.0415,-1.0375,-1.0374,-1.0372,-1.0316,-1.0315,-1.0315,-1.0314,-1.0226,-1.0223,-1.022,-1.0212,0,0,-1.0211,-1.0209,0,0,0,0,0,0,0,0,-1.0514,-1.0506,-1.0427,-1.0423,-1.0417,-1.0355,-1.0381,-1.0319,-1.0316,-1.0354,-1.0315,-1.0314,-1.0268,-1.0262,-1.0247,-1.0208,-1.0204,-1.021,-1.0209,-1.0207,-1.0206,0,0,0,0,0,0,0,-1.0518,-1.0509,-1.0426,-1.0426,-1.042,-1.0406,-1.0396,-1.0369,-1.0315,-1.035,-1.0346,-1.0337,-1.0266,-1.025,-1.0244,-1.0203,-1.021,-1.0208,-1.0206,-1.0205,-1.0156,-1.0157,0,0,0,0,0,0,-1.0529,-1.0514,-1.0429,-1.0424,-1.0465,-1.0404,-1.0393,-1.0376,-1.0315,-1.0306,-1.0337,-1.0335,-1.0256,-1.0248,-1.0241,-1.0229,-1.0207,-1.0204,-1.0203,-1.0155,-1.0156,-1.0157,0,0,0,0,0,0,-1.0532,-1.0522,-1.0432,-1.0467,-1.0455,-1.0403,-1.0384,-1.0374,-1.0359,-1.0306,-1.0296,-1.0331,-1.0255,-1.0245,-1.0221,-1.0225,-1.0203,-1.02,-1.0155,-1.0156,-1.0156,-1.0205,0,0,0,0,0,0,-1.0536,-1.0524,-1.052,-1.0468,-1.0453,-1.0414,-1.0384,-1.0373,-1.0354,-1.0349,-1.0297,-1.0288,-1.0254,-1.0226,-1.0218,-1.0221,-1.0198,-1.0154,-1.0155,-1.0156,-1.0203,-1.0208,-1.0212,0,0,0,0,0,-1.054,-1.0536,-1.052,-1.051,-1.0448,-1.0414,-1.0406,-1.0367,-1.0354,-1.0351,-1.0317,-1.029,-1.0227,-1.0224,-1.0214,-1.0216,-1.0154,-1.0155,-1.0156,-1.0201,-1.0207,-1.0211,0,0,0,0,0,0,-1.0589,-1.0528,-1.051,-1.0489,-1.0458,-1.0405,-1.0398,-1.0374,-1.0344,-1.0341,-1.0294,-1.0282,-1.0263,-1.0237,-1.0235,-1.0207,-1.0187,-1.0186,-1.0224,-1.0229,-1.0233,-1.024,-1.0195,0,0,0,0,0,-1.0598,-1.0576,-1.0524,-1.0511,-1.0496,-1.045,-1.0434,-1.0407,-1.0372,-1.0358,-1.0322,-1.0288,-1.0261,-1.0244,-1.0215,-1.0199,-1.0188,-1.0196,-1.0201,-1.0205,-1.0204,-1.0196,-1.0199,-1.0161,-1.0161,-1.0161,0,0,-1.0615,-1.0579,-1.0568,-1.052,-1.0492,-1.047,-1.0439,-1.0417,-1.04,-1.0354,-1.0329,-1.0302,-1.0261,-1.0242,-1.0231,-1.0219,-1.0213,-1.0206,-1.021,-1.0207,-1.0197,-1.0201,-1.0204,-1.0162,-1.0161,-1.0161,0,0,-1.0635,-1.0605,-1.0592,-1.0566,-1.0524,-1.0495,-1.0492,-1.0443,-1.0424,-1.0398,-1.0364,-1.0344,-1.0297,-1.027,-1.025,-1.0264,-1.0238,-1.0256,-1.0278,-1.027,-1.0273,-1.0276,-1.0281,-1.0284,-1.0256,-1.0256,-1.0256,0,-1.0661,-1.0627,-1.0588,-1.0569,-1.0549,-1.0508,-1.0495,-1.0471,-1.0422,-1.041,-1.0398,-1.0341,-1.031,-1.0284,-1.0288,-1.0273,-1.0269,-1.0261,-1.0276,-1.0278,-1.028,-1.0285,-1.0287,-1.0259,-1.0259,-1.0258,-1.0258,0,-1.0662,-1.0639,-1.0633,-1.059,-1.0569,-1.0553,-1.0512,-1.0496,-1.0472,-1.0444,-1.042,-1.0382,-1.0347,-1.0339,-1.0314,-1.031,-1.0304,-1.0285,-1.0264,-1.0287,-1.029,-1.0292,-1.0262,-1.0261,-1.0261,-1.026,0,0,-1.0708,-1.0645,-1.0643,-1.0624,-1.0577,-1.0559,-1.0541,-1.0508,-1.0496,-1.0465,-1.0449,-1.0413,-1.0395,-1.0373,-1.0345,-1.0339,-1.0353,-1.032,-1.0319,-1.0328,-1.0347,-1.0362,-1.0365,-1.0337,-1.0337,-1.0337,-1.0351,0,-1.0721,-1.0688,-1.0654,-1.0633,-1.0612,-1.0575,-1.056,-1.053,-1.0504,-1.0482,-1.0453,-1.0428,-1.0407,-1.0394,-1.0385,-1.0353,-1.0357,-1.0352,-1.0321,-1.0321,-1.0332,-1.0367,-1.0381,-1.0397,-1.0352,-1.0352,-1.0353,0,-1.0731,-1.0704,-1.0681,-1.0639,-1.0629,-1.0616,-1.0584,-1.0564,-1.053,-1.0511,-1.0488,-1.046,-1.044,-1.0423,-1.0395,-1.0393,-1.0379,-1.0362,-1.0361,-1.0356,-1.0338,-1.0363,-1.04,-1.0403,-1.0354,-1.0354,-1.0354,0,-1.0768,-1.0725,-1.0707,-1.0691,-1.064,-1.0633,-1.0611,-1.0577,-1.056,-1.0532,-1.052,-1.049,-1.0473,-1.0451,-1.0415,-1.0406,-1.0392,-1.0371,-1.0376,-1.0377,-1.0374,-1.0375,-1.041,-1.0366,-1.0366,-1.0366,-1.0366,0,-1.0785,-1.0773,-1.0723,-1.0711,-1.0697,-1.0659,-1.0646,-1.0621,-1.0591,-1.0574,-1.054,-1.0525,-1.0479,-1.0459,-1.0431,-1.0414,-1.0406,-1.0391,-1.0383,-1.0394,-1.0396,-1.0383,-1.0381,-1.0366,-1.0366,-1.0366,-1.0366,0,-1.0823,-1.0789,-1.0766,-1.0722,-1.071,-1.0702,-1.0663,-1.0651,-1.0625,-1.0604,-1.0597,-1.0555,-1.0529,-1.0492,-1.0455,-1.0437,-1.0423,-1.0411,-1.0435,-1.0431,-1.0438,-1.0438,-1.0466,-1.0468,-1.0423,-1.0424,-1.0424,0,-1.0836,-1.0827,-1.0782,-1.0769,-1.0749,-1.0729,-1.0712,-1.0674,-1.0658,-1.062,-1.0613,-1.0586,-1.0561,-1.0523,-1.0489,-1.0461,-1.0448,-1.046,-1.0443,-1.0455,-1.0448,-1.0449,-1.0449,-1.0463,-1.0464,-1.0465,-1.0465,0,-1.0864,-1.0849,-1.0826,-1.0798,-1.078,-1.0756,-1.073,-1.0721,-1.0678,-1.0662,-1.0637,-1.0619,-1.0583,-1.0556,-1.0524,-1.0501,-1.0476,-1.0471,-1.0471,-1.0481,-1.0495,-1.0488,-1.0446,-1.047,-1.047,-1.0469,-1.0469,-1.0469,-1.089,-1.0881,-1.0848,-1.0825,-1.0802,-1.078,-1.0767,-1.074,-1.0718,-1.0687,-1.0666,-1.0642,-1.061,-1.0565,-1.0544,-1.0525,-1.0514,-1.0514,-1.0514,-1.0514,-1.0518,-1.0499,-1.0519,-1.0519,-1.0519,-1.0519,-1.0518,0,-1.0917,-1.0895,-1.0874,-1.084,-1.0822,-1.0802,-1.0774,-1.076,-1.074,-1.0713,-1.0691,-1.0663,-1.0637,-1.0602,-1.0575,-1.0566,-1.0554,-1.056,-1.056,-1.0556,-1.0529,-1.0532,-1.0571,-1.0571,-1.0571,-1.0571,-1.0571,-1.0571,-1.0928,-1.0911,-1.0892,-1.0864,-1.0842,-1.082,-1.0805,-1.0785,-1.0763,-1.0734,-1.0714,-1.0692,-1.0662,-1.0632,-1.0608,-1.0599,-1.059,-1.06,-1.0587,-1.0562,-1.0557,-1.0553,-1.0556,-1.0598,-1.0599,-1.0615,-1.0615,-1.0615]},{"header":{"parameterUnit":"m.s-1","parameterCategory":1,"la1":30.2991,"la2":30.254,"lo1":-89.0895,"lo2":-89.0444,"dy":0.0017,"dx":0.0017,"nx":28,"ny":28,"refTime":"2024-04-14T03:00:00:Z","depth":0,"parameterNumber":3,"parameterNumberName":"V-component_of_WINDS"},"data":[0,0,0,0,0,0,0,0,0,0,0,0,0,0,0,0,0,0,0,0,0,0,0,0,0,0,0,0,0,0,0,0,0,0,0,0,0,0,0,0,0,0,0,0,0,0,0,0,0,0,0,0,0,0,0,0,0,0,2.8508,2.8509,0,2.8525,2.8525,2.8525,2.8535,2.8535,2.8535,2.8536,2.8551,2.8551,2.8551,0,0,0,0,0,0,0,0,0,0,0,0,0,2.8485,2.8485,2.8508,2.8509,2.8509,2.8525,2.8525,2.8525,2.8535,2.8535,2.8535,2.8536,2.8551,2.8551,2.8551,0,0,0,0,0,0,0,0,0,0,0,0,0,2.8497,2.8485,2.8508,2.8516,2.8517,2.8525,2.8525,2.8525,2.8535,2.8535,2.8535,2.8536,2.855,2.8551,2.8551,2.8553,0,0,2.8553,2.8553,0,0,0,0,0,0,0,0,2.8497,2.8498,2.8515,2.8515,2.8516,2.8528,2.8522,2.8534,2.8535,2.8528,2.8536,2.8536,2.8543,2.8544,2.8547,2.8553,2.8554,2.8553,2.8553,2.8554,2.8554,0,0,0,0,0,0,0,2.8496,2.8498,2.8515,2.8515,2.8516,2.8518,2.852,2.8524,2.8535,2.8529,2.853,2.8531,2.8543,2.8546,2.8547,2.8554,2.8553,2.8553,2.8554,2.8554,2.8563,2.8563,0,0,0,0,0,0,2.8494,2.8497,2.8514,2.8515,2.8507,2.8518,2.852,2.8524,2.8535,2.8537,2.8531,2.8532,2.8545,2.8547,2.8548,2.855,2.8554,2.8554,2.8554,2.8563,2.8563,2.8563,0,0,0,0,0,0,2.8493,2.8495,2.8514,2.8506,2.8509,2.8519,2.8523,2.8524,2.8527,2.8537,2.8538,2.8533,2.8546,2.8547,2.8552,2.8551,2.8554,2.8555,2.8563,2.8563,2.8563,2.8555,0,0,0,0,0,0,2.8493,2.8495,2.8496,2.8506,2.8509,2.8517,2.8523,2.8525,2.8528,2.8529,2.8538,2.854,2.8546,2.8551,2.8552,2.8552,2.8555,2.8563,2.8563,2.8563,2.8555,2.8554,2.8554,0,0,0,0,0,2.8492,2.8493,2.8496,2.8498,2.8511,2.8517,2.8519,2.8526,2.8528,2.8529,2.8535,2.854,2.8551,2.8551,2.8553,2.8552,2.8563,2.8563,2.8563,2.8555,2.8555,2.8554,0,0,0,0,0,0,2.8482,2.8494,2.8498,2.8502,2.8509,2.8519,2.852,2.8525,2.853,2.8531,2.8539,2.8541,2.8545,2.8549,2.8549,2.8554,2.8557,2.8558,2.8551,2.8551,2.855,2.8549,2.8556,0,0,0,0,0,2.848,2.8485,2.8496,2.8498,2.8502,2.851,2.8514,2.8519,2.8525,2.8528,2.8534,2.854,2.8545,2.8548,2.8553,2.8556,2.8558,2.8556,2.8556,2.8555,2.8555,2.8557,2.8556,2.8562,2.8562,2.8562,0,0,2.8477,2.8484,2.8487,2.8497,2.8502,2.8507,2.8513,2.8517,2.852,2.8528,2.8533,2.8538,2.8545,2.8549,2.8551,2.8552,2.8554,2.8555,2.8554,2.8555,2.8557,2.8556,2.8556,2.8562,2.8562,2.8562,0,0,2.8473,2.8479,2.8482,2.8488,2.8496,2.8502,2.8503,2.8513,2.8516,2.8521,2.8527,2.8531,2.8539,2.8544,2.8548,2.8546,2.855,2.8547,2.8544,2.8545,2.8545,2.8545,2.8544,2.8544,2.8547,2.8547,2.8547,0,2.8467,2.8475,2.8483,2.8487,2.8492,2.85,2.8503,2.8507,2.8517,2.8519,2.8521,2.8532,2.8537,2.8542,2.8542,2.8544,2.8545,2.8546,2.8544,2.8544,2.8544,2.8543,2.8543,2.8547,2.8547,2.8547,2.8547,0,2.8468,2.8473,2.8474,2.8484,2.8488,2.8492,2.85,2.8503,2.8508,2.8514,2.8519,2.8525,2.8532,2.8533,2.8538,2.8539,2.854,2.8543,2.8546,2.8543,2.8543,2.8542,2.8546,2.8546,2.8546,2.8547,0,0,2.8458,2.8472,2.8473,2.8477,2.8487,2.8491,2.8495,2.8502,2.8505,2.8511,2.8514,2.8521,2.8524,2.8528,2.8533,2.8534,2.8533,2.8537,2.8538,2.8536,2.8534,2.8532,2.8532,2.8535,2.8535,2.8535,2.8534,0,2.8456,2.8464,2.8471,2.8476,2.8481,2.8489,2.8492,2.8498,2.8504,2.8508,2.8514,2.8519,2.8522,2.8525,2.8527,2.8532,2.8532,2.8533,2.8538,2.8538,2.8537,2.8532,2.8529,2.8527,2.8534,2.8534,2.8534,0,2.8454,2.846,2.8466,2.8476,2.8478,2.8481,2.8488,2.8493,2.85,2.8503,2.8508,2.8513,2.8517,2.852,2.8526,2.8526,2.8529,2.8532,2.8532,2.8533,2.8536,2.8532,2.8527,2.8526,2.8534,2.8534,2.8534,0,2.8446,2.8456,2.8461,2.8465,2.8476,2.8478,2.8483,2.849,2.8494,2.85,2.8502,2.8509,2.8512,2.8516,2.8523,2.8524,2.8528,2.8531,2.8531,2.8531,2.8531,2.8531,2.8526,2.8533,2.8533,2.8533,2.8533,0,2.8443,2.8446,2.8458,2.8461,2.8465,2.8473,2.8477,2.8482,2.8488,2.8492,2.8499,2.8502,2.8511,2.8515,2.852,2.8524,2.8526,2.8529,2.853,2.8528,2.8528,2.853,2.853,2.8533,2.8533,2.8533,2.8533,0,2.8435,2.8443,2.8449,2.846,2.8462,2.8465,2.8473,2.8476,2.8482,2.8487,2.8488,2.8497,2.8503,2.851,2.8517,2.8521,2.8524,2.8526,2.8522,2.8523,2.8522,2.8522,2.8518,2.8518,2.8525,2.8525,2.8525,0,2.8433,2.8435,2.8446,2.845,2.8454,2.846,2.8464,2.8472,2.8476,2.8484,2.8486,2.8492,2.8497,2.8506,2.8512,2.8518,2.852,2.8519,2.8521,2.8519,2.8521,2.852,2.8521,2.8518,2.8518,2.8518,2.8518,0,2.8427,2.8431,2.8437,2.8444,2.8449,2.8455,2.8461,2.8463,2.8473,2.8477,2.8483,2.8487,2.8495,2.85,2.8507,2.8512,2.8516,2.8517,2.8517,2.8515,2.8513,2.8514,2.852,2.8517,2.8517,2.8517,2.8517,2.8517,2.8422,2.8425,2.8433,2.8439,2.8445,2.8451,2.8454,2.8461,2.8466,2.8473,2.8478,2.8483,2.849,2.85,2.8504,2.8509,2.851,2.8511,2.8511,2.8511,2.851,2.8512,2.851,2.851,2.851,2.851,2.851,0,2.8417,2.8423,2.8429,2.8437,2.8442,2.8447,2.8454,2.8457,2.8463,2.8469,2.8474,2.8481,2.8487,2.8494,2.85,2.8502,2.8505,2.8504,2.8504,2.8504,2.8508,2.8507,2.8502,2.8502,2.8502,2.8502,2.8502,2.8502,2.8415,2.842,2.8425,2.8433,2.8439,2.8445,2.8449,2.8454,2.8459,2.8467,2.8472,2.8476,2.8483,2.849,2.8495,2.8497,2.8499,2.8498,2.85,2.8503,2.8504,2.8505,2.8504,2.8498,2.8498,2.8496,2.8496,2.8496]}]]